Home > Weather > Monaco > Past weeks

Flag for Monaco Past Weather in Monaco, Monaco — Yesterday and Last 2 Weeks

Now
63 °F

Clear.


Feels Like: 63 °F
Forecast: 50 / 69 °F
Wind: 13 mph from East

Location: Nice Airport

Current Time: May 25, 2016 at 1:36:29 AM

Latest Report: May 25, 2016 at 1:00 AM


Visibility: 10 mi

Pressure: 29.89 "Hg

Humidity: 73%

Dew Point: 54 °F

Location of MonacoLocation

Past Weather in Monaco — Graph

°F

Monaco Temperature Yesterday

Maximum temperature yesterday: 72 °F (at 10:00 AM)
Minimum temperature yesterday: 57 °F (at 4:30 AM)
Average temperature yesterday: 64 °F

High & Low Weather Summary for the Past Weeks

 TemperatureHumidityPressure
High79 °F (May 19, 3:00 PM)94% (May 11, 5:30 AM)30.12 "Hg (May 11, 5:30 AM)
Low55 °F (May 12, 5:00 AM)18% (May 19, 3:00 PM)29.45 "Hg (May 12, 5:00 PM)
Average64 °F68%29.84 "Hg
* Reported May 10 12:00 AM — May 25 12:30 AM, Monaco, Weather by CustomWeather, © 2016

Note: Actual official high and low records may vary slightly from our data, if they occured in-between our weather recording intervals... More about our weather records

Advertising

Monaco Weather History for the Previous 24 Hours

Scroll right to see more
 ConditionsComfort  
Time TempWeatherWind HumidityBarometerVisibility
12:30 AM
Wed, May 25
63 °FClear.14 mph73%29.89 "Hg10 mi
12:00 AM63 °FClear.16 mph73%29.86 "Hg10 mi
11:30 PM
Tue, May 24
63 °FClear.17 mph73%29.86 "Hg10 mi
11:00 PM63 °FClear.16 mph73%29.86 "Hg10 mi
10:30 PM63 °FClear.16 mph77%29.86 "Hg10 mi
10:00 PM63 °FClear.15 mph73%29.83 "Hg10 mi
9:30 PM63 °FScattered clouds.13 mph73%29.83 "HgN/A
9:00 PM64 °FScattered clouds.13 mph73%29.83 "HgN/A
8:30 PM64 °FScattered clouds.14 mph68%29.83 "HgN/A
8:00 PM64 °FBroken clouds.15 mph73%29.83 "HgN/A
7:30 PM64 °FPartly sunny.15 mph73%29.83 "HgN/A
7:00 PM64 °FPartly sunny.13 mph73%29.80 "HgN/A
6:30 PM66 °FPartly sunny.10 mph64%29.80 "HgN/A
6:00 PM66 °FPartly sunny.9 mph64%29.80 "HgN/A
5:30 PM66 °FPartly sunny.10 mph64%29.80 "HgN/A
5:00 PM66 °FScattered clouds.9 mph64%29.83 "HgN/A
4:30 PM66 °FScattered clouds.8 mph64%29.83 "HgN/A
4:00 PM66 °FScattered clouds.8 mph68%29.83 "HgN/A
3:30 PM68 °FPassing clouds.8 mph64%29.83 "HgN/A
3:00 PM66 °FPassing clouds.7 mph64%29.83 "HgN/A
2:30 PM68 °FPassing clouds.5 mph56%29.83 "HgN/A
2:00 PM66 °FPassing clouds.6 mph60%29.83 "HgN/A
1:30 PM66 °FPassing clouds.6 mph64%29.83 "HgN/A
1:00 PM66 °FPassing clouds.8 mph56%29.83 "HgN/A
12:30 PM64 °FPassing clouds.9 mph52%29.83 "HgN/A
12:00 PM66 °FPassing clouds.8 mph46%29.83 "HgN/A
11:30 AM66 °FSunny.12 mph46%29.83 "Hg10 mi
11:00 AM66 °FSunny.10 mph46%29.80 "Hg10 mi
10:30 AM66 °FSunny.8 mph56%29.80 "Hg10 mi
10:00 AM72 °FSunny.5 mph31%29.80 "Hg10 mi
9:30 AM70 °FPassing clouds.8 mph27%29.80 "HgN/A
9:00 AM66 °FSunny.9 mph30%29.80 "Hg10 mi
8:30 AM64 °FPassing clouds.9 mph32%29.80 "HgN/A
8:00 AM63 °FSunny.8 mph32%29.83 "Hg10 mi
7:30 AM61 °FSunny.13 mph34%29.80 "Hg10 mi
7:00 AM59 °FSunny.14 mph36%29.83 "Hg10 mi
6:30 AM59 °FClear.12 mph36%29.83 "Hg10 mi
6:00 AM59 °FClear.10 mph34%29.83 "Hg10 mi
5:30 AM59 °FClear.13 mph34%29.80 "Hg10 mi
5:00 AM59 °FClear.13 mph34%29.83 "Hg10 mi
4:30 AM57 °FClear.5 mph51%29.83 "Hg10 mi
4:00 AM59 °FClear.8 mph36%29.83 "Hg10 mi
3:30 AM61 °FPassing clouds.10 mph34%29.83 "HgN/A
3:00 AM59 °FPassing clouds.9 mph42%29.83 "HgN/A
2:00 AM59 °FPassing clouds.3 mph55%29.83 "HgN/A
1:30 AM59 °FClear.2 mph48%29.83 "Hg10 mi
1:00 AM63 °FClear.1 mph59%29.83 "Hg10 mi
Weather by CustomWeather, © 2016

See weather overviewHow to use our weather pages